Flag for Canada Weather past 2 weeks in Regina, Saskatchewan, Canada

Now
77 °F

Partly sunny.


Feels Like: 78 °F
Forecast: N/A
Wind: 12 mph from Southwest

Location: Regina Weather Station

Current Time: May 25, 2015 at 3:53:29 PM

Latest Report: May 25, 2015 at 3:00 PM


Visibility: 15 mi

Pressure: 29.85 "Hg

Humidity: 28%

Dew point: 41 °F

Location of ReginaLocation

Historic Weather in Regina — Graph

°F

Regina temperature yesterday

Maximum temperature yesterday: 81 °F (at 2:00 PM)
Minimum temperature yesterday: 43 °F (at 5:00 AM)
Average temperature yesterday: 65 °F

Past Weeks' High & Low Weather Summary

 TemperatureHumidityPressure
High81 °F (May 24, 2:00 PM)93% (May 13, 4:00 AM)30.56 "Hg (May 13, 4:00 AM)
Low25 °F (May 18, 2:00 AM)15% (May 21, 2:00 PM)29.83 "Hg (May 25, 12:00 PM)
Average53 °F49%30.16 "Hg
* Reported May 10 2:00 PM — May 25 2:00 PM, Regina, Weather by CustomWeather, © 2015

Note: Actual official high and low records may vary slightly from our data, if they occured in-between our weather recording intervals... More about our weather records

Advertising

Regina weather history for previous 24 hours

 ConditionsComfort  
Time TempWeatherWind HumidityBarometerVisibility
2:00 PM
Mon, May 25
79 °FPartly sunny.14 mph23%29.85 "Hg15 mi
1:00 PM75 °FOvercast.20 mph27%29.84 "Hg15 mi
12:00 PM79 °FScattered clouds.2 mph20%29.83 "Hg15 mi
11:00 AM77 °FScattered clouds.3 mph24%29.85 "Hg15 mi
10:00 AM73 °FScattered clouds.2 mph33%29.86 "Hg15 mi
9:00 AM68 °FPartly sunny.5 mph40%29.87 "Hg15 mi
8:00 AM63 °FPartly sunny.2 mph49%29.88 "Hg15 mi
7:00 AM55 °FPassing clouds.3 mph55%29.89 "Hg15 mi
6:00 AM46 °FScattered clouds.5 mph82%29.90 "Hg15 mi
5:00 AM48 °FPassing clouds.3 mph71%29.90 "Hg15 mi
4:00 AM48 °FPassing clouds.6 mph71%29.89 "Hg15 mi
3:00 AM50 °FPassing clouds.5 mph71%29.90 "Hg15 mi
2:00 AM52 °FPassing clouds.7 mph67%29.90 "Hg15 mi
1:00 AM55 °FPassing clouds.No wind59%29.91 "Hg15 mi
12:00 AM59 °FPassing clouds.7 mph55%29.90 "Hg15 mi
11:00 PM
Sun, May 24
59 °FPassing clouds.2 mph48%29.91 "Hg15 mi
10:00 PM64 °FPassing clouds.No wind32%29.91 "Hg15 mi
9:00 PM68 °FPassing clouds.3 mph30%29.91 "Hg15 mi
8:00 PM72 °FPassing clouds.3 mph29%29.91 "Hg15 mi
7:00 PM75 °FPassing clouds.No wind24%29.93 "Hg15 mi
6:00 PM73 °FBroken clouds.14 mph25%29.95 "Hg15 mi
5:00 PM77 °FBroken clouds.3 mph24%29.96 "Hg15 mi
4:00 PM81 °FBroken clouds.9 mph20%29.97 "Hg15 mi
3:00 PM79 °FPartly sunny.10 mph18%29.97 "Hg15 mi
Weather by CustomWeather, © 2015

See weather overviewHow to use our weather pages